Simultaneous Nadir Overpasses (SNOs) Predictions

Prediction of SNOs between NOAA-19 and NPP Satellite Orbit:

Table of predicted SNOs for the next 14.0 days since TLE Epoch: 1/17/2014
Index Date (NOAA-19) Time (NOAA-19) Lat,Lon (NOAA-19) SZA (NOAA-19 ) Date (NPP) Time (NPP) Lat,Lon (NPP) SZA (NPP ) Distance(km) Time Diff (sec)
1 01/26/2014 12:34:04 80.99, -62.50 103.58 01/26/2014 12:35:01 80.99, -62.42 103.54 1.40 57
2 01/26/2014 13:25:00 -80.98, 105.08 76.48 01/26/2014 13:25:45 -80.98, 105.19 76.52 2.08 45
3 01/26/2014 14:16:06 80.97, -87.26 103.46 01/26/2014 14:16:30 80.98, -87.44 103.47 3.23 24
4 01/26/2014 15:07:02 -80.96, 80.31 76.60 01/26/2014 15:07:14 -80.97, 80.17 76.59 2.51 12
5 01/26/2014 15:58:09 80.96,-112.40 103.39 01/26/2014 15:57:59 80.96,-112.47 103.40 1.24 10
6 01/26/2014 16:49:05 -80.95, 55.18 76.67 01/26/2014 16:48:43 -80.95, 55.15 76.66 0.55 22
7 01/26/2014 17:40:12 80.95,-137.53 103.31 01/26/2014 17:39:28 80.95,-137.49 103.33 0.77 44




NCC Satellite Simultaneous Nadir Overpasses (SNOs) Prediction Service
